Flag for U.S.A. Weather past 2 weeks in Charlotte, North Carolina, U.S.A.

Now
71 °F

Clear.


Feels Like: 77 °F
Forecast: 55 / 83 °F
Wind: 9 mph from Southeast

Location: Charlotte / Douglas International Airport

Current Time: May 23, 2015 at 11:42:28 PM

Latest Report: May 23, 2015 at 10:52 PM


Visibility: 10 mi

Pressure: 30.34 "Hg

Humidity: 35%

Dew point: 42 °F

Location of CharlotteLocation

Historic Weather in Charlotte — Graph

°F

Charlotte temperature yesterday

Maximum temperature yesterday: 76 °F (at 3:52 PM)
Minimum temperature yesterday: 57 °F (at 6:52 AM)
Average temperature yesterday: 66 °F

Past Weeks' High & Low Weather Summary

 TemperatureHumidityPressure
High90 °F (May 11, 4:52 PM)97% (May 11, 6:52 AM)30.42 "Hg (May 11, 6:52 AM)
Low50 °F (May 23, 5:52 AM)21% (May 13, 4:52 PM)29.79 "Hg (May 21, 6:52 PM)
Average73 °F59%30.12 "Hg
* Reported May 8 9:52 PM — May 23 9:52 PM, Charlotte, Weather by CustomWeather, © 2015

Note: Actual official high and low records may vary slightly from our data, if they occured in-between our weather recording intervals... More about our weather records

Advertising

Charlotte weather history for previous 24 hours

 ConditionsComfort  
Time TempWeatherWind HumidityBarometerVisibility
9:52 PM
Sat, May 23
73 °FClear.8 mph33%30.33 "Hg10 mi
8:52 PM73 °FPassing clouds.5 mph30%30.32 "Hg10 mi
7:52 PM76 °FPassing clouds.9 mph26%30.33 "Hg10 mi
6:52 PM79 °FPassing clouds.7 mph23%30.33 "Hg10 mi
5:52 PM80 °FSunny.6 mph21%30.34 "Hg10 mi
4:52 PM80 °FSunny.5 mph21%30.35 "Hg10 mi
3:52 PM81 °FPassing clouds.8 mph21%30.36 "Hg10 mi
2:52 PM81 °FPassing clouds.13 mph21%30.37 "Hg10 mi
1:52 PM79 °FPassing clouds.9 mph23%30.39 "Hg10 mi
12:52 PM79 °FPassing clouds.9 mph23%30.40 "Hg10 mi
11:52 AM76 °FPassing clouds.5 mph25%30.41 "Hg10 mi
10:52 AM75 °FPassing clouds.7 mph28%30.42 "Hg10 mi
9:52 AM72 °FPassing clouds.5 mph33%30.42 "Hg10 mi
8:52 AM68 °FPassing clouds.No wind44%30.41 "Hg10 mi
7:52 AM60 °FPassing clouds.5 mph67%30.39 "Hg10 mi
6:52 AM51 °FPassing clouds.6 mph83%30.37 "Hg10 mi
5:52 AM50 °FClear.No wind80%30.34 "Hg10 mi
4:52 AM54 °FClear.No wind67%30.32 "Hg10 mi
3:52 AM54 °FClear.No wind69%30.30 "Hg10 mi
2:52 AM55 °FClear.3 mph72%30.29 "Hg10 mi
1:52 AM53 °FClear.5 mph72%30.29 "Hg10 mi
12:52 AM56 °FPassing clouds.No wind62%30.29 "Hg10 mi
11:52 PM
Fri, May 22
60 °FPassing clouds.No wind56%30.28 "Hg10 mi
Weather by CustomWeather, © 2015

See weather overviewHow to use our weather pages